FW9628 Weather Reports


time (UTC)temp
C
wind
direction
speed
KPH
gust
KPH
rain 1hr
cm
rain 24hr
cm
rain mn
cm
humidity
%
barometer
mb
20260906234539 16 140 3.2 9.7 0.00 0.00 0.00 77 1018.2
20260906233034 16 140 1.6 8.0 0.00 0.00 0.00 78 1018.3
20260906231539 15 140 1.6 6.4 0.00 0.00 0.00 80 1018.4
20260906230042 15 0 1.6 8.0 0.00 0.00 0.00 81 1018.5
20260906224540 15 140 4.8 8.0 0.00 0.00 0.00 83 1018.6
20260906223038 15 140 3.2 6.4 0.00 0.00 0.00 83 1018.9
20260906221535 15 140 3.2 8.0 0.00 0.00 0.00 84 1018.8
20260906220035 14 0 1.6 4.8 0.00 0.00 0.00 87 1018.8
20260906214535 13 140 4.8 11.3 0.00 0.00 0.00 87 1018.9
20260906213035 13 140 3.2 9.7 0.00 0.00 0.00 87 1019.0
20260906211536 14 140 6.4 14.5 0.00 0.00 0.00 86 1019.2
20260906210036 15 140 3.2 9.7 0.00 0.00 0.00 82 1018.9
20260906203035 15 140 4.8 12.9 0.00 0.00 0.00 80 1019.4
20260906201544 15 140 4.8 11.3 0.00 0.00 0.00 79 1019.4
20260906200035 15 140 4.8 14.5 0.00 0.00 0.00 79 1019.5
20260906194537 15 140 8.0 16.1 0.00 0.00 0.00 78 1019.6
20260906193035 15 140 8.0 12.9 0.00 0.00 0.00 77 1019.7
20260906191534 15 140 9.7 16.1 0.00 0.00 0.00 76 1019.7
20260906184536 14 140 11.3 19.3 0.00 0.00 0.00 79 1019.9
20260906183036 15 140 12.9 19.3 0.00 0.00 0.00 78 1019.9
20260906181535 15 140 6.4 14.5 0.00 0.00 0.00 77 1020.0
20260906180049 15 140 6.4 16.1 0.00 0.00 0.00 77 1020.1
20260906174537 15 140 8.0 16.1 0.00 0.00 0.00 75 1020.1
20260906173036 15 140 8.0 12.9 0.00 0.00 0.00 75 1020.1
20260906171536 15 140 6.4 9.7 0.00 0.00 0.00 76 1020.1
20260906170033 14 140 6.4 14.5 0.00 0.00 0.00 78 1020.0
20260906164534 13 140 3.2 8.0 0.00 0.00 0.00 81 1020.2
20260906163035 13 140 4.8 12.9 0.00 0.00 0.00 82 1020.4
20260906161542 13 140 1.6 12.9 0.00 0.00 0.00 83 1020.4
20260906154543 13 140 6.4 11.3 0.00 0.00 0.00 84 1020.4
20260906153036 13 140 8.0 12.9 0.00 0.00 0.00 84 1020.5
20260906151536 13 141 1.6 8.0 0.00 0.00 0.00 84 1020.7
20260906144537 12 141 3.2 11.3 0.00 0.00 0.00 88 1021.0
20260906143035 12 141 4.8 9.7 0.00 0.00 0.00 88 1020.9
20260906141533 12 141 4.8 9.7 0.00 0.00 0.00 89 1020.9
20260906140038 12 141 1.6 4.8 0.00 0.00 0.00 90 1021.0
20260906134535 12 141 3.2 8.0 0.00 0.00 0.00 90 1021.1
20260906133036 12 141 1.6 8.0 0.00 0.00 0.00 90 1021.1
20260906131536 11 140 4.8 6.4 0.00 0.00 0.00 90 1021.5
20260906130047 11 141 3.2 6.4 0.00 0.00 0.00 91 1021.6
20260906123042 11 0 0.0 3.2 0.00 0.00 0.00 91 1021.2
20260906121536 11 140 3.2 4.8 0.00 0.00 0.00 91 1021.4
20260906114539 11 140 0.0 1.6 0.00 0.00 0.00 92 1021.1
20260906113035 11 141 0.0 3.2 0.00 0.00 0.00 92 1021.3
20260906111543 11 140 0.0 3.2 0.00 0.00 0.00 93 1021.7
20260906103044 11 0 0.0 1.6 0.00 0.00 0.00 93 1022.0
20260906101536 11 0 0.0 1.6 0.00 0.00 0.00 93 1022.1
20260906100033 11 0 0.0 1.6 0.00 0.00 0.00 92 1022.1
20260906094545 11 0 0.0 4.8 0.00 0.00 0.00 92 1022.1
20260906093039 11 141 3.2 6.4 0.00 0.00 0.00 91 1022.2
20260906091537 11 140 1.6 6.4 0.00 0.00 0.00 89 1022.1
20260906090035 11 0 0.0 0.0 0.00 0.00 0.00 89 1022.3
20260906084534 11 0 0.0 0.0 0.00 0.00 0.00 89 1022.7
20260906083034 11 0 0.0 0.0 0.00 0.00 0.00 89 1022.6
20260906081532 11 0 0.0 1.6 0.00 0.00 0.00 89 1022.8
20260906080029 11 0 0.0 1.6 0.00 0.00 0.00 88 1022.7
20260906074538 11 140 0.0 3.2 0.00 0.00 0.00 88 1022.7
20260906073034 11 0 0.0 1.6 0.00 0.00 0.00 88 1022.9
20260906070036 11 0 0.0 3.2 0.00 0.00 0.00 88 1023.0
20260906063039 11 140 0.0 3.2 0.00 0.00 0.00 87 1022.9
20260906061535 11 140 0.0 4.8 0.00 0.00 0.00 87 1023.1
20260906060036 11 141 0.0 3.2 0.00 0.00 0.00 87 1023.1
20260906053036 11 141 1.6 6.4 0.00 0.00 0.00 87 1023.2
20260906051537 11 0 0.0 4.8 0.00 0.00 0.00 86 1023.1
20260906043033 11 141 3.2 8.0 0.00 0.00 0.00 86 1023.0
20260906041533 11 140 4.8 8.0 0.00 0.00 0.00 86 1022.8
20260906040045 12 141 3.2 11.3 0.00 0.00 0.00 85 1022.9
20260906034546 12 141 4.8 9.7 0.00 0.00 0.00 85 1023.0
20260906033035 12 140 4.8 11.3 0.00 0.00 0.00 84 1023.1
20260906031602 12 141 0.0 8.0 0.00 0.00 0.00 84 1023.1
20260906030033 12 141 3.2 6.4 0.00 0.00 0.00 84 1023.1
20260906024553 12 0 1.6 3.2 0.00 0.00 0.00 84 1023.1
20260906023041 12 140 0.0 3.2 0.00 0.00 0.00 84 1023.0
20260906021536 12 141 0.0 1.6 0.00 0.00 0.00 83 1022.9
20260906020033 12 140 1.6 4.8 0.00 0.00 0.00 83 1022.9
20260906014536 12 140 0.0 3.2 0.00 0.00 0.00 82 1022.8
20260906013033 12 0 0.0 3.2 0.00 0.00 0.00 82 1022.7
20260906011535 12 141 0.0 3.2 0.00 0.00 0.00 82 1022.7
20260906010045 12 141 0.0 3.2 0.00 0.00 0.00 82 1022.7
20260906001538 12 0 0.0 1.6 0.00 0.00 0.00 82 1022.7
20260906000039 12 141 0.0 4.8 0.00 0.00 0.00 83 1022.7